This is the latest recevied weather packets stored in our database for station/object KB1FFS. If no packets are shown the sender has not sent any weather packets the latest 10 day(s).
| Time | Temp. | Humidity | Pressure | Rain* | Wind** | Luminosity | Snow |
|---|---|---|---|---|---|---|---|
| 1787882493 | 33.33° C | 41% | 1015.1 hPa | 0 mm | - | 0 W/m² | - |
| 1787882188 | 33.33° C | 40% | 1015.3 hPa | 0 mm | - | 0 W/m² | - |
| 1787881887 | 33.33° C | 40% | 1015.1 hPa | 0 mm | - | 0 W/m² | - |
| 1787881583 | 33.33° C | 40% | 1015.1 hPa | 0 mm | - | 0 W/m² | - |
| 1787881280 | 33.33° C | 39% | 1015.1 hPa | 0 mm | - | 0 W/m² | - |
| 1787880974 | 33.33° C | 40% | 1014.8 hPa | 0 mm | - | 0 W/m² | - |
| 1787880674 | 33.89° C | 39% | 1014.7 hPa | 0 mm | - | 0 W/m² | - |
| 1787880372 | 33.89° C | 39% | 1014.8 hPa | 0 mm | - | 0 W/m² | - |
| 1787880067 | 33.89° C | 38% | 1014.6 hPa | 0 mm | - | 0 W/m² | - |
| 1787879762 | 33.89° C | 38% | 1014.4 hPa | 0 mm | - | 0 W/m² | - |
| 1787879457 | 33.89° C | 39% | 1014.7 hPa | 0 mm | - | 0 W/m² | - |
| 1787879153 | 34.44° C | 38% | 1014.4 hPa | 0 mm | - | 2 W/m² | - |
| 1787878850 | 34.44° C | 39% | 1014.4 hPa | 0 mm | - | 2 W/m² | - |
| 1787878549 | 34.44° C | 38% | 1014.5 hPa | 0 mm | - | 3 W/m² | - |
| 1787878244 | 35° C | 37% | 1014.3 hPa | 0 mm | - | 5 W/m² | - |
| 1787877940 | 35° C | 37% | 1014.1 hPa | 0 mm | - | 7 W/m² | - |
| 1787877635 | 35° C | 37% | 1014.2 hPa | 0 mm | - | 9 W/m² | - |
| 1787877331 | 35° C | 36% | 1014.2 hPa | 0 mm | - | 12 W/m² | - |
| 1787877026 | 35.56° C | 36% | 1014.2 hPa | 0 mm | - | 16 W/m² | - |
| 1787876721 | 35.56° C | 36% | 1014.2 hPa | 0 mm | - | 21 W/m² | - |
| 1787876416 | 35.56° C | 36% | 1014.2 hPa | 0 mm | - | 29 W/m² | - |
| 1787876115 | 35.56° C | 36% | 1014.1 hPa | 0 mm | - | 35 W/m² | - |
| 1787875810 | 36.11° C | 35% | 1014.1 hPa | 0 mm | - | 37 W/m² | - |
| 1787875509 | 36.11° C | 35% | 1014.3 hPa | 0 mm | - | 44 W/m² | - |
| 1787875208 | 36.11° C | 36% | 1014.3 hPa | 0 mm | - | 52 W/m² | - |
* Rain latest hour (hover to see other rain measurements)
** Current wind speed in m/s (hover to see current wind gust speed)